カタログに戻る

SL-16 DEB

運用中LEO
NORAD 22375·DEBRIS·🇷🇺 Russia

打ち上げ Dec 25, 1992 から Baikonur Cosmodrome

Loading…

次のパス (今後24時間)

TLE

最新Source: Space-Track

元期: Sep 14, 2026, 13:38 UTC

1 22375U 92093BQ  26257.56868236  .00000060  00000-0  69062-4 0  9991
2 22375  70.8173 320.1266 0091511 282.1978 146.6491 14.01580203721590

AllMySatでSL-16 DEBをリアルタイム追跡

Download on the App Store